Location: Coed Ely
(51.5661°N, 3.4150°W)
Time: 23:55:24
(UTC+00:00)

Cosmos 1703 - Pass Details

Date: 28 January 2021
Orbit: 524 x 538 km, 82.5° (Epoch: 01 March)

Event Time Altitude Azimuth Distance (km) Brightness Sun altitude
Rises 17:42:04 0° 169° (S) 2,649 6.9 -7.3°
Reaches altitude 10° 17:44:17 10° 162° (SSE) 1,765 5.9 -7.7°
Maximum altitude 17:47:54 39° 93° (E) 806 3.7 -8.2°
Drops below altitude 10° 17:51:33 10° 24° (NNE) 1,779 5.5 -8.7°
Sets 17:53:47 0° 17° (NNE) 2,674 6.5 -9.1°
